Weather History for Burlington, NC

Change the Weather History Date:

Thursday, October 4, 2012

  Actual Average Record
Temperature  
Mean Temperature 70 °F -  
Max Temperature 78 °F 74 °F 95 °F (1954)
Min Temperature 61 °F 50 °F 34 °F (1974)
Cooling Degree Days 4    
Growing Degree Days 20 (Base 50)    
Moisture  
Dew Point 62 °F    
Average Humidity 78    
Maximum Humidity 97    
Minimum Humidity 54    
Precipitation  
Precipitation 0.00 in - - ()
Sea Level Pressure  
Sea Level Pressure 30.18 in    
Wind  
Wind Speed 5 mph (WSW)    
Max Wind Speed 8 mph    
Max Gust Speed 30 mph    
Visibility 10 miles    
Events Rain    
Averages and records for this station are not official NWS values.
T = Trace of Precipitation, MM = Missing Value Source: NWS Daily Summary

Daily Weather History Graph

Daily Weather History Graph

Search for Another Location

Airport:

Trip Planner

Search our weather history database for the weather conditions in past years. The results will help you decide how hot, cold, wet, or windy it might be!

Date:

Astronomy

Oct. 04, 2012 Rise Set
Actual Time 7:15 AM EDT 6:56 PM EDT
Civil Twilight 6:50 AM EDT 7:22 PM EDT
Nautical Twilight 6:20 AM EDT 7:51 PM EDT
Astronomical Twilight 5:50 AM EDT 8:21 PM EDT
Moon 9:39 PM EDT (10/4) 11:23 AM EDT (10/4)
Length of Visible Light 12h 31m
Length of Day
11h 40m
Waning Gibbous, 82% of the Moon is Illuminated
Oct 4
Waning Gibbous
Oct 8
Last Quarter
Oct 15
New
Oct 21
First Quarter
Oct 29
Full

Hourly Weather History & Observations

Time (EDT) Temp. Dew Point Humidity Pressure Visibility Wind Dir Wind Speed Gust Speed Precip Events Conditions
12:54 AM 70.0 °F 64.0 °F 81% 30.17 in 10.0 mi SW 5.8 mph - N/A   Clear
1:54 AM 69.1 °F 64.0 °F 84% 30.17 in 10.0 mi WSW 4.6 mph - N/A   Scattered Clouds
2:54 AM 69.1 °F 64.0 °F 84% 30.16 in 10.0 mi SW 3.5 mph - 0.00 in   Mostly Cloudy
3:54 AM 68.0 °F 62.1 °F 81% 30.16 in 10.0 mi WSW 5.8 mph - 0.00 in   Scattered Clouds
4:54 AM 66.9 °F 62.1 °F 84% 30.17 in 10.0 mi WSW 4.6 mph - 0.00 in   Partly Cloudy
5:54 AM 66.9 °F 61.0 °F 81% 30.18 in 10.0 mi SSW 3.5 mph - N/A   Partly Cloudy
6:54 AM 66.0 °F 62.1 °F 87% 30.19 in 10.0 mi SSW 4.6 mph - 0.00 in   Scattered Clouds
7:54 AM 66.9 °F 62.1 °F 84% 30.20 in 10.0 mi SW 4.6 mph 29.9 mph 0.00 in Rain Light Rain
8:54 AM 66.9 °F 64.0 °F 90% 30.21 in 10.0 mi SW 4.6 mph - 0.00 in   Partly Cloudy
9:54 AM 69.1 °F 63.0 °F 81% 30.22 in 10.0 mi SW 6.9 mph - N/A   Clear
10:54 AM 70.0 °F 64.0 °F 81% 30.23 in 10.0 mi WSW 8.1 mph - 0.00 in   Mostly Cloudy
11:54 AM 73.9 °F 64.0 °F 71% 30.22 in 10.0 mi West 6.9 mph - N/A   Clear
12:54 PM 75.9 °F 63.0 °F 64% 30.20 in 10.0 mi West 6.9 mph - N/A   Clear
1:54 PM 75.0 °F 61.0 °F 62% 30.18 in 10.0 mi WNW 6.9 mph - N/A   Clear
2:54 PM 75.9 °F 62.1 °F 62% 30.17 in 10.0 mi West 4.6 mph - N/A   Clear
3:54 PM 75.9 °F 61.0 °F 60% 30.16 in 10.0 mi West 4.6 mph - N/A   Partly Cloudy
4:54 PM 77.0 °F 61.0 °F 58% 30.15 in 10.0 mi WSW 4.6 mph - N/A   Partly Cloudy
5:54 PM 77.0 °F 59.0 °F 54% 30.15 in 10.0 mi West 8.1 mph - N/A   Clear
6:54 PM 73.0 °F 61.0 °F 66% 30.16 in 10.0 mi Calm Calm - N/A   Clear
7:54 PM 66.9 °F 62.1 °F 84% 30.15 in 10.0 mi Calm Calm - N/A   Clear
8:54 PM 64.9 °F 63.0 °F 93% 30.17 in 10.0 mi Calm Calm - N/A   Clear
9:54 PM 62.1 °F 61.0 °F 96% 30.17 in 9.0 mi Calm Calm - N/A   Clear
10:54 PM 63.0 °F 61.0 °F 93% 30.19 in 10.0 mi Calm Calm - N/A   Clear
11:54 PM 61.0 °F 60.1 °F 97% 30.19 in 6.0 mi Calm Calm - N/A   Clear